Volver al catálogo

YAOGAN-40 01A

ActivoMilitarPO
NORAD 57830·PAYLOAD·🇨🇳 China

Lanzado Sep 10, 2023 desde Taiyuan Satellite Launch Center

Loading…

Próximos Pases (próximas 24 horas)

TLE

ActualizadoSource: Space-Track

Época: Sep 14, 2026, 15:02 UTC

1 57830U 23139A   26257.62707065  .00000102  00000-0  45136-4 0  9992
2 57830  85.9918 219.8136 0001980  84.3391 275.8018 14.12462669155329

Sigue YAOGAN-40 01A en tiempo real con AllMySat

Download on the App Store